This is the latest recevied weather packets stored in our database for station/object K2CCS. If no packets are shown the sender has not sent any weather packets the latest 10 day(s).
| Time | Temp. | Humidity | Pressure | Rain* | Wind** | Luminosity | Snow |
|---|---|---|---|---|---|---|---|
| 1777293648 | 11.67° C | 59% | 1029.3 hPa | 0 mm | - | 55 W/m² | - |
| 1777293343 | 11.67° C | 60% | 1029.4 hPa | 0 mm | - | 104 W/m² | - |
| 1777293039 | 11.67° C | 60% | 1029.3 hPa | 0 mm | - | 145 W/m² | - |
| 1777292738 | 11.67° C | 60% | 1029.5 hPa | 0 mm | - | 63 W/m² | - |
| 1777292434 | 11.11° C | 62% | 1029.3 hPa | 0 mm | - | 130 W/m² | - |
| 1777292131 | 11.11° C | 62% | 1029.2 hPa | 0 mm | - | 83 W/m² | - |
| 1777291827 | 10.56° C | 62% | 1029.4 hPa | 0 mm | - | 154 W/m² | - |
| 1777291524 | 10.56° C | 64% | 1029.3 hPa | 0 mm | - | 136 W/m² | - |
| 1777291221 | 10° C | 64% | 1029.2 hPa | 0 mm | - | 69 W/m² | - |
| 1777290918 | 10° C | 65% | 1029.5 hPa | 0 mm | - | 62 W/m² | - |
| 1777290615 | 9.44° C | 67% | 1029.2 hPa | 0 mm | - | 53 W/m² | - |
| 1777290311 | 9.44° C | 68% | 1029.3 hPa | 0 mm | - | 42 W/m² | - |
| 1777290007 | 8.89° C | 71% | 1029.4 hPa | 0 mm | - | 44 W/m² | - |
| 1777289703 | 8.33° C | 73% | 1029.3 hPa | 0 mm | - | 36 W/m² | - |
| 1777289399 | 7.78° C | 75% | 1029.1 hPa | 0 mm | - | 42 W/m² | - |
| 1777289096 | 7.22° C | 78% | 1029 hPa | 0 mm | - | 37 W/m² | - |
| 1777288792 | 6.67° C | 80% | 1029.3 hPa | 0 mm | - | 29 W/m² | - |
| 1777288490 | 6.67° C | 80% | 1029.3 hPa | 0 mm | - | 29 W/m² | - |
| 1777288185 | 6.11° C | 80% | 1029.1 hPa | 0 mm | - | 27 W/m² | - |
| 1777287882 | 6.11° C | 81% | 1029.1 hPa | 0 mm | - | 26 W/m² | - |
| 1777287579 | 5.56° C | 83% | 1029.1 hPa | 0 mm | - | 29 W/m² | - |
| 1777287275 | 5° C | 85% | 1029.1 hPa | 0 mm | - | 24 W/m² | - |
| 1777286972 | 4.44° C | 87% | 1029.1 hPa | 0 mm | - | 22 W/m² | - |
| 1777286669 | 4.44° C | 87% | 1029.1 hPa | 0 mm | - | 20 W/m² | - |
| 1777286366 | 3.89° C | 87% | 1028.9 hPa | 0 mm | - | 18 W/m² | - |
* Rain latest hour (hover to see other rain measurements)
** Current wind speed in m/s (hover to see current wind gust speed)